Weather History for Erwin, NC

Change the Weather History Date:

Sunday, June 23, 2013

  Actual Average Record
Temperature  
Mean Temperature 78 °F -  
Max Temperature 85 °F 88 °F 102 °F (2010)
Min Temperature 71 °F 66 °F 53 °F (1992)
Cooling Degree Days 13    
Growing Degree Days 28 (Base 50)    
Moisture  
Dew Point 72 °F    
Average Humidity 88    
Maximum Humidity 100    
Minimum Humidity 55    
Precipitation  
Precipitation 0.34 in - - ()
Sea Level Pressure  
Sea Level Pressure 30.18 in    
Wind  
Wind Speed 1 mph (SE)    
Max Wind Speed 10 mph    
Max Gust Speed -    
Visibility 9 miles    
Events Rain    
Averages and records for this station are not official NWS values.
T = Trace of Precipitation, MM = Missing Value Source: NWS Daily Summary

Daily Weather History Graph

Daily Weather History Graph

Search for Another Location

Airport:

Trip Planner

Search our weather history database for the weather conditions in past years. The results will help you decide how hot, cold, wet, or windy it might be!

Date:

Astronomy

Jun. 23, 2013 Rise Set
Actual Time 6:00 AM EDT 8:33 PM EDT
Civil Twilight 5:30 AM EDT 9:03 PM EDT
Nautical Twilight 4:53 AM EDT 9:40 PM EDT
Astronomical Twilight 4:12 AM EDT 10:21 PM EDT
Moon 8:47 PM EDT (6/23) 6:13 AM EDT (6/23)
Length of Visible Light 15h 32m
Length of Day
14h 32m
Full, 100% of the Moon is Illuminated
Jun 23
Full
Jun 30
Last Quarter
Jul 8
New
Jul 15
First Quarter
Jul 22
Full

Hourly Weather History & Observations

Time (EDT) Temp. Heat Index Dew Point Humidity Pressure Visibility Wind Dir Wind Speed Gust Speed Precip Events Conditions
12:15 AM 71.6 °F - 71.4 °F 99% 30.17 in 10.0 mi Calm Calm - N/A   Scattered Clouds
12:35 AM 71.6 °F - 71.1 °F 98% 30.17 in 10.0 mi Calm Calm - N/A   Mostly Cloudy
12:55 AM 71.2 °F - 71.2 °F 100% 30.17 in 10.0 mi Calm Calm - N/A   Scattered Clouds
1:15 AM 71.2 °F - 71.2 °F 100% 30.18 in 10.0 mi Calm Calm - N/A   Mostly Cloudy
1:35 AM 71.6 °F - 71.2 °F 99% 30.17 in 10.0 mi Calm Calm - N/A   Overcast
1:55 AM 71.6 °F - 71.2 °F 99% 30.17 in 10.0 mi Calm Calm - N/A   Overcast
2:15 AM 71.6 °F - 71.6 °F 100% 30.16 in 10.0 mi Calm Calm - N/A   Mostly Cloudy
2:35 AM 71.6 °F - 71.2 °F 99% 30.17 in 10.0 mi Calm Calm - N/A   Overcast
2:55 AM 71.6 °F - 71.6 °F 100% 30.16 in 10.0 mi Calm Calm - N/A   Overcast
3:15 AM 72.0 °F - 71.8 °F 99% 30.16 in 7.0 mi Calm Calm - N/A Rain Light Rain
3:35 AM 71.6 °F - 71.6 °F 100% 30.16 in 10.0 mi Calm Calm - N/A   Mostly Cloudy
3:55 AM 71.6 °F - 71.6 °F 100% 30.16 in 10.0 mi Calm Calm - N/A   Mostly Cloudy
4:15 AM 71.6 °F - 71.6 °F 100% 30.16 in 10.0 mi Calm Calm - N/A   Overcast
4:35 AM 71.8 °F - 71.8 °F 100% 30.16 in 10.0 mi Calm Calm - N/A Rain Light Rain
4:55 AM 71.8 °F - 71.8 °F 100% 30.16 in 10.0 mi Calm Calm - N/A   Mostly Cloudy
5:15 AM 71.8 °F - 71.8 °F 100% 30.17 in 10.0 mi Calm Calm - N/A   Light Drizzle
5:35 AM 72.1 °F - 72.1 °F 100% 30.18 in 10.0 mi Calm Calm - N/A   Overcast
5:55 AM 72.5 °F - 72.5 °F 100% 30.18 in 10.0 mi Calm Calm - N/A   Overcast
6:15 AM 72.5 °F - 72.5 °F 100% 30.18 in 7.0 mi Calm Calm - 0.01 in   Overcast
6:35 AM 72.5 °F - 72.5 °F 100% 30.19 in 7.0 mi Calm Calm - 0.01 in   Overcast
6:55 AM 72.7 °F - 72.7 °F 100% 30.19 in 7.0 mi Calm Calm - 0.01 in   Overcast
7:15 AM 73.0 °F - 72.9 °F 99% 30.19 in 10.0 mi Calm Calm - N/A   Overcast
7:35 AM 73.4 °F - 73.0 °F 99% 30.20 in 10.0 mi Calm Calm - N/A   Overcast
7:55 AM 73.4 °F - 73.4 °F 100% 30.20 in 7.0 mi SE 3.5 mph - N/A   Overcast
8:15 AM 74.1 °F - 73.4 °F 98% 30.21 in 10.0 mi Calm Calm - N/A   Mostly Cloudy
8:35 AM 75.4 °F - 73.4 °F 94% 30.21 in 10.0 mi South 4.6 mph - N/A   Mostly Cloudy
8:55 AM 76.1 °F - 72.9 °F 90% 30.22 in 10.0 mi SSW 5.8 mph - N/A   Overcast
9:15 AM 76.3 °F - 72.7 °F 89% 30.22 in 10.0 mi SW 6.9 mph - N/A   Overcast
9:35 AM 76.8 °F - 72.1 °F 85% 30.22 in 10.0 mi SW 5.8 mph - N/A   Overcast
9:55 AM 77.0 °F - 71.2 °F 82% 30.23 in 10.0 mi West 3.5 mph - N/A   Overcast
10:15 AM 76.5 °F - 72.1 °F 86% 30.22 in 5.0 mi Calm Calm - N/A Rain Rain
10:35 AM 76.5 °F - 73.2 °F 90% 30.23 in 7.0 mi Calm Calm - N/A   Overcast
10:55 AM 77.4 °F - 72.9 °F 86% 30.23 in 10.0 mi Calm Calm - N/A   Mostly Cloudy
11:15 AM 77.9 °F - 72.1 °F 82% 30.22 in 10.0 mi Calm Calm - N/A   Scattered Clouds
11:35 AM 78.3 °F - 71.6 °F 80% 30.22 in 10.0 mi Calm Calm - N/A   Scattered Clouds
11:55 AM 77.9 °F - 71.8 °F 81% 30.23 in 7.0 mi Calm Calm - 0.01 in Rain Rain
12:15 PM 77.4 °F - 74.8 °F 92% 30.23 in 10.0 mi ESE 3.5 mph - N/A   Light Drizzle
12:35 PM 77.9 °F - 75.2 °F 91% 30.22 in 10.0 mi East 5.8 mph - N/A   Scattered Clouds
12:55 PM 80.1 °F 83.7 °F 71.4 °F 75% 30.21 in 10.0 mi Calm Calm - N/A   Scattered Clouds
1:15 PM 81.1 °F 84.9 °F 70.3 °F 70% 30.21 in 10.0 mi Calm Calm - N/A   Scattered Clouds
1:35 PM 78.3 °F - 69.8 °F 75% 30.21 in 7.0 mi NNW 3.5 mph - 0.01 in Rain Light Rain
1:55 PM 81.5 °F 85.7 °F 71.4 °F 71% 30.20 in 10.0 mi NNE 3.5 mph - 0.01 in   Scattered Clouds
2:15 PM 81.7 °F 86.7 °F 72.5 °F 74% 30.19 in 10.0 mi Calm Calm - N/A   Clear
2:35 PM 80.8 °F 85.2 °F 72.7 °F 76% 30.19 in 10.0 mi NNW 3.5 mph - N/A   Clear
2:55 PM 82.2 °F 87.1 °F 71.8 °F 71% 30.18 in 10.0 mi Calm Calm - N/A   Clear
3:15 PM 83.7 °F 88.9 °F 71.6 °F 67% 30.16 in 10.0 mi Calm Calm - N/A   Clear
3:35 PM 84.4 °F 89.0 °F 70.3 °F 63% 30.15 in 10.0 mi Calm Calm - N/A   Clear
3:55 PM 85.3 °F 89.8 °F 69.8 °F 60% 30.14 in 10.0 mi ESE 4.6 mph - N/A   Clear
4:15 PM 85.5 °F 88.5 °F 67.8 °F 55% 30.15 in 10.0 mi Calm Calm - N/A   Clear
4:35 PM 84.2 °F 87.6 °F 68.4 °F 59% 30.16 in 10.0 mi Calm Calm - N/A   Clear
4:55 PM 83.3 °F 87.4 °F 70.0 °F 64% 30.16 in 10.0 mi Calm Calm - N/A   Scattered Clouds
5:15 PM 83.5 °F 88.8 °F 71.8 °F 68% 30.14 in 10.0 mi Calm Calm - N/A Rain Light Rain
5:35 PM 81.0 °F 86.2 °F 73.9 °F 79% 30.14 in 10.0 mi Calm Calm - 0.01 in Rain Light Rain
5:55 PM 82.2 °F 88.0 °F 73.4 °F 75% 30.14 in 10.0 mi Calm Calm - 0.01 in   Scattered Clouds
6:15 PM 81.5 °F 86.9 °F 73.6 °F 77% 30.15 in 10.0 mi ESE 10.4 mph - N/A   Mostly Cloudy
6:35 PM 79.9 °F - 69.8 °F 71% 30.15 in 10.0 mi East 4.6 mph - N/A   Mostly Cloudy
6:55 PM 79.3 °F - 69.8 °F 72% 30.15 in 10.0 mi East 3.5 mph - N/A   Scattered Clouds
7:15 PM 78.8 °F - 70.2 °F 75% 30.15 in 10.0 mi East 9.2 mph - N/A   Mostly Cloudy
7:35 PM 77.0 °F - 72.7 °F 86% 30.16 in 10.0 mi ENE 6.9 mph - 0.03 in   Overcast
7:55 PM 75.2 °F - 72.3 °F 91% 30.18 in 7.0 mi ESE 4.6 mph - 0.05 in Rain Rain
8:15 PM 73.6 °F - 72.3 °F 96% 30.18 in 4.0 mi Calm Calm - 0.17 in Rain Heavy Rain
8:35 PM 73.6 °F - 72.7 °F 97% 30.19 in 7.0 mi WSW 3.5 mph - 0.22 in Rain Light Rain
8:55 PM 73.8 °F - 73.4 °F 99% 30.19 in 10.0 mi Calm Calm - 0.23 in Rain Light Rain
9:15 PM 74.3 °F - 73.8 °F 98% 30.18 in 10.0 mi Calm Calm - 0.01 in Rain Light Rain
9:35 PM 74.1 °F - 73.6 °F 98% 30.18 in 10.0 mi Calm Calm - 0.01 in   Scattered Clouds
9:55 PM 74.3 °F - 73.9 °F 99% 30.18 in 7.0 mi South 5.8 mph - 0.02 in   Light Drizzle
10:15 PM 74.7 °F - 74.3 °F 99% 30.19 in 10.0 mi SSW 9.2 mph - N/A   Clear
10:35 PM 74.3 °F - 72.9 °F 95% 30.19 in 10.0 mi South 8.1 mph - N/A   Clear
10:55 PM 73.8 °F - 72.7 °F 96% 30.18 in 10.0 mi Calm Calm - N/A   Clear
11:15 PM 73.4 °F - 72.5 °F 97% 30.18 in 10.0 mi Calm Calm - N/A   Clear
11:35 PM 73.0 °F - 72.5 °F 98% 30.19 in 10.0 mi Calm Calm - N/A   Clear
11:55 PM 72.9 °F - 72.3 °F 98% 30.19 in 10.0 mi Calm Calm - N/A   Scattered Clouds